TimeCDT,TemperatureF,Dew PointF,Humidity,Sea Level PressureIn,VisibilityMPH,Wind Direction,Wind SpeedMPH,Gust SpeedMPH,PrecipitationIn,Events,Conditions,WindDirDegrees,DateUTC
12:53 AM,53.1,53.1,100,30.11,10.0,Calm,Calm,-,N/A,,Clear,0,2013-07-12 05:53:00
1:53 AM,53.1,52.0,96,30.12,10.0,Calm,Calm,-,N/A,,Clear,0,2013-07-12 06:53:00
2:53 AM,51.1,50.0,96,30.12,10.0,Calm,Calm,-,N/A,,Clear,0,2013-07-12 07:53:00
3:53 AM,51.1,50.0,96,30.12,10.0,Calm,Calm,-,N/A,,Clear,0,2013-07-12 08:53:00
4:53 AM,52.0,50.0,93,30.14,10.0,Calm,Calm,-,N/A,,Clear,0,2013-07-12 09:53:00
5:53 AM,51.1,50.0,96,30.16,10.0,Calm,Calm,-,N/A,,Clear,0,2013-07-12 10:53:00
6:53 AM,57.9,55.9,93,30.17,10.0,Calm,Calm,-,N/A,,Clear,0,2013-07-12 11:53:00
7:53 AM,64.9,55.9,73,30.17,10.0,Calm,Calm,-,N/A,,Clear,0,2013-07-12 12:53:00
8:53 AM,69.1,60.1,73,30.17,10.0,Calm,Calm,-,N/A,,Clear,0,2013-07-12 13:53:00
9:53 AM,73.0,57.0,57,30.17,10.0,South,3.5,-,N/A,,Clear,170,2013-07-12 14:53:00
10:53 AM,75.9,57.0,52,30.17,10.0,ENE,4.6,-,N/A,,Clear,70,2013-07-12 15:53:00
11:53 AM,78.1,57.0,48,30.16,10.0,Calm,Calm,-,N/A,,Clear,0,2013-07-12 16:53:00
12:53 PM,78.1,50.0,37,30.14,10.0,SE,5.8,-,N/A,,Clear,130,2013-07-12 17:53:00
1:53 PM,79.0,50.0,36,30.14,10.0,SE,4.6,-,N/A,,Clear,130,2013-07-12 18:53:00
2:53 PM,79.0,46.9,32,30.14,10.0,Variable,4.6,-,N/A,,Clear,0,2013-07-12 19:53:00
3:53 PM,79.0,51.1,38,30.13,10.0,ESE,4.6,-,N/A,,Clear,120,2013-07-12 20:53:00
4:53 PM,77.0,57.0,50,30.12,10.0,SSE,8.1,-,N/A,,Clear,150,2013-07-12 21:53:00
5:53 PM,73.9,55.0,52,30.11,10.0,SSE,6.9,-,N/A,,Clear,150,2013-07-12 22:53:00
6:53 PM,72.0,55.0,55,30.11,10.0,SSE,4.6,-,N/A,,Clear,160,2013-07-12 23:53:00
7:53 PM,70.0,57.9,65,30.11,10.0,SSE,3.5,-,N/A,,Clear,160,2013-07-13 00:53:00
8:53 PM,64.0,57.9,80,30.12,10.0,SSE,3.5,-,N/A,,Clear,160,2013-07-13 01:53:00
9:53 PM,62.1,59.0,90,30.12,10.0,Calm,Calm,-,N/A,,Clear,0,2013-07-13 02:53:00
10:53 PM,59.0,57.9,96,30.11,10.0,Calm,Calm,-,N/A,,Clear,0,2013-07-13 03:53:00
11:53 PM,57.0,55.9,96,30.11,10.0,Calm,Calm,-,N/A,,Clear,0,2013-07-13 04:53:00